Location: Peterborough
(44.3091°N, 78.3197°W)
Time: 11:44:49
(UTC-04:00)

Transit 2A - Pass Details

Date: 30 March 2023
Orbit: 591 x 964 km, 66.7° (Epoch: 27 May)

Event Time Altitude Azimuth Distance (km) Brightness Sun altitude
Rises 06:17:19 0° 243° (WSW) 3,270 - -8.1°
Exits shadow 06:19:41 - 252° (WSW) 2,471 7.9 -7.7°
Reaches altitude 10° 06:19:53 10° 253° (WSW) 2,406 7.9 -7.6°
Maximum altitude 06:24:52 32° 316° (NW) 1,451 7.2 -6.8°
Drops below altitude 10° 06:30:17 10° 19° (NNE) 2,620 9.2 -5.8°
Sets 06:33:13 0° 29° (NNE) 3,606 10.1 -5.3°
